User: anonymous   Login
Location: Zagreb
(45.8000°N, 16.0000°E)
Time: 01:12:24
(UTC+02:00)
Language:

Tiros 1 - Orbit

View from above orbital plane
View from above orbital plane
View from above satellite
View from above satellite

Ground track
Ground track

The orbit data is extracted from the following two-line orbital elements,

1    29U 60002B   20224.22553735 -.00000156 +00000-0 +79061-5 0  9992
2    29 048.3802 050.1301 0023665 107.1071 253.2435 14.74366111226623
Epoch (UTC): 11 August 2020 05:24:46
Eccentricity: 0.0023665
inclination: 48.3802°
perigee height: 630 km
apogee height: 664 km
right ascension of ascending node: 50.1301°
argument of perigee: 107.1071°
revolutions per day: 14.74366111
mean anomaly at epoch: 253.2435°
orbit number at epoch: 22662

The dashed part of the orbit path shows where the satellite is in the earth's shadow,  

DLR